When you browse on this site, cookies collect data to enhance your experience and personalize the content and advertising you see.
Visit our Privacy Policy to learn more. By continuing to use the site, you agree to this use of cookies and data.

Meteo pe oră la Cumaná

Astăzi, 8 August, Sâmbătă

Timp Temperatura Precipitaţii Vânt Presiune Umiditate
00:00 +26°C° 0 mm 4 m/s 753 mmHg 93%
01:00 +26°C° 0 mm 4 m/s 753 mmHg 92%
02:00 +26°C° 0 mm 4 m/s 752 mmHg 91%
03:00 +26°C° 0 mm 4 m/s 752 mmHg 91%
04:00 +26°C° 0 mm 4 m/s 752 mmHg 91%
05:00 +26°C° 0 mm 3 m/s 752 mmHg 91%
06:00 +27°C° 0 mm 3 m/s 753 mmHg 88%
07:00 +28°C° 0 mm 3 m/s 753 mmHg 85%
08:00 +29°C° 0 mm 2 m/s 753 mmHg 82%
09:00 +30°C° 0.1 mm 2 m/s 753 mmHg 79%
10:00 +31°C° 0.1 mm 2 m/s 754 mmHg 76%
11:00 +34°C° 0.1 mm 2 m/s 754 mmHg 73%
12:00 +32°C° 0.7 mm 2 m/s 753 mmHg 78%
13:00 +31°C° 0.7 mm 2 m/s 753 mmHg 84%
14:00 +31°C° 0.7 mm 3 m/s 752 mmHg 90%
15:00 +30°C° 0.6 mm 3 m/s 751 mmHg 91%
16:00 +30°C° 0.6 mm 3 m/s 751 mmHg 92%
17:00 +30°C° 0.6 mm 3 m/s 751 mmHg 93%
18:00 +29°C° 0.1 mm 3 m/s 751 mmHg 94%
19:00 +28°C° 0.1 mm 4 m/s 752 mmHg 96%
20:00 +27°C° 0.1 mm 4 m/s 752 mmHg 97%
21:00 +27°C° 0.1 mm 4 m/s 752 mmHg 96%
22:00 +27°C° 0.1 mm 4 m/s 753 mmHg 95%
23:00 +26°C° 0.1 mm 4 m/s 753 mmHg 93%

Mâine, 9 August, Duminică

Timp Temperatura Precipitaţii Vânt Presiune Umiditate
00:00 +26°C° 0.2 mm 4 m/s 753 mmHg 93%
01:00 +26°C° 0.2 mm 4 m/s 752 mmHg 92%
02:00 +25°C° 0.2 mm 3 m/s 752 mmHg 92%
03:00 +25°C° 0.3 mm 3 m/s 752 mmHg 91%
04:00 +25°C° 0.3 mm 3 m/s 752 mmHg 91%
05:00 +25°C° 0.3 mm 2 m/s 752 mmHg 90%
06:00 +27°C° 0.1 mm 2 m/s 752 mmHg 87%
07:00 +28°C° 0.1 mm 1 m/s 753 mmHg 85%
08:00 +29°C° 0.1 mm 1 m/s 753 mmHg 82%
09:00 +30°C° 0.2 mm 1 m/s 753 mmHg 82%
10:00 +31°C° 0.2 mm 2 m/s 753 mmHg 82%
11:00 +31°C° 0.2 mm 2 m/s 753 mmHg 82%
12:00 +31°C° 1.3 mm 2 m/s 753 mmHg 85%
13:00 +31°C° 1.3 mm 2 m/s 752 mmHg 89%
14:00 +30°C° 1.3 mm 2 m/s 752 mmHg 92%
15:00 +30°C° 0.8 mm 1 m/s 751 mmHg 93%
16:00 +29°C° 0.8 mm 1 m/s 751 mmHg 95%
17:00 +29°C° 0.8 mm 1 m/s 750 mmHg 97%
18:00 +28°C° 0.2 mm 1 m/s 751 mmHg 97%
19:00 +27°C° 0.2 mm 1 m/s 751 mmHg 96%
20:00 +27°C° 0.2 mm 1 m/s 752 mmHg 96%
21:00 +27°C° 0.3 mm 1 m/s 752 mmHg 96%
22:00 +26°C° 0.3 mm 2 m/s 752 mmHg 95%
23:00 +26°C° 0.3 mm 2 m/s 753 mmHg 95%

Poimâine, 10 August, Luni

Timp Temperatura Precipitaţii Vânt Presiune Umiditate
00:00 +26°C° 0.2 mm 2 m/s 752 mmHg 94%
01:00 +26°C° 0.2 mm 2 m/s 752 mmHg 94%
02:00 +26°C° 0.2 mm 2 m/s 751 mmHg 94%
03:00 +26°C° 0.1 mm 1 m/s 751 mmHg 93%
04:00 +26°C° 0.1 mm 1 m/s 751 mmHg 93%
05:00 +25°C° 0.1 mm 1 m/s 751 mmHg 93%
06:00 +26°C° 0 mm 1 m/s 751 mmHg 91%
07:00 +28°C° 0 mm 1 m/s 752 mmHg 89%
08:00 +29°C° 0 mm 1 m/s 752 mmHg 88%
09:00 +30°C° 0 mm 1 m/s 752 mmHg 81%
10:00 +31°C° 0 mm 1 m/s 752 mmHg 74%
11:00 +33°C° 0 mm 1 m/s 752 mmHg 68%
12:00 +32°C° 0.5 mm 1 m/s 752 mmHg 75%
13:00 +31°C° 0.5 mm 1 m/s 751 mmHg 83%
14:00 +31°C° 0.5 mm 2 m/s 750 mmHg 90%
15:00 +30°C° 0.5 mm 2 m/s 750 mmHg 92%
16:00 +29°C° 0.5 mm 2 m/s 749 mmHg 94%
17:00 +29°C° 0.5 mm 2 m/s 749 mmHg 96%
18:00 +28°C° 0.2 mm 2 m/s 749 mmHg 97%
19:00 +28°C° 0.2 mm 2 m/s 750 mmHg 97%
20:00 +27°C° 0.2 mm 3 m/s 750 mmHg 98%
21:00 +26°C° 0.1 mm 3 m/s 751 mmHg 97%
22:00 +26°C° 0.1 mm 3 m/s 751 mmHg 96%
23:00 +26°C° 0.1 mm 3 m/s 751 mmHg 95%

11 August, Marţi

Timp Temperatura Precipitaţii Vânt Presiune Umiditate
00:00 +25°C° 0 mm 3 m/s 751 mmHg 94%
01:00 +25°C° 0 mm 3 m/s 750 mmHg 93%
02:00 +25°C° 0 mm 3 m/s 750 mmHg 92%
03:00 +25°C° 0 mm 3 m/s 750 mmHg 91%
04:00 +25°C° 0 mm 3 m/s 750 mmHg 91%
05:00 +25°C° 0 mm 3 m/s 749 mmHg 90%
06:00 +26°C° 0 mm 3 m/s 750 mmHg 88%
07:00 +27°C° 0 mm 3 m/s 750 mmHg 85%
08:00 +28°C° 0 mm 3 m/s 751 mmHg 83%
09:00 +30°C° 0 mm 3 m/s 751 mmHg 75%
10:00 +33°C° 0 mm 3 m/s 751 mmHg 68%
11:00 +35°C° 0 mm 3 m/s 751 mmHg 60%
12:00 +34°C° 0.2 mm 4 m/s 750 mmHg 66%
13:00 +34°C° 0.2 mm 4 m/s 749 mmHg 72%
14:00 +33°C° 0.2 mm 4 m/s 749 mmHg 79%
15:00 +32°C° 0.6 mm 5 m/s 748 mmHg 84%
16:00 +30°C° 0.6 mm 5 m/s 748 mmHg 90%
17:00 +29°C° 0.6 mm 5 m/s 748 mmHg 96%
18:00 +28°C° 0.3 mm 6 m/s 748 mmHg 96%
19:00 +28°C° 0.3 mm 6 m/s 749 mmHg 97%
20:00 +27°C° 0.3 mm 6 m/s 750 mmHg 98%
21:00 +27°C° 0 mm 6 m/s 750 mmHg 97%
22:00 +26°C° 0 mm 5 m/s 750 mmHg 95%
23:00 +26°C° 0 mm 5 m/s 751 mmHg 94%

12 August, Miercuri

Timp Temperatura Precipitaţii Vânt Presiune Umiditate
00:00 +26°C° 0 mm 5 m/s 750 mmHg 93%
01:00 +26°C° 0 mm 4 m/s 750 mmHg 93%
02:00 +26°C° 0 mm 4 m/s 749 mmHg 92%
03:00 +25°C° 0 mm 4 m/s 749 mmHg 91%
04:00 +25°C° 0 mm 4 m/s 749 mmHg 90%
05:00 +25°C° 0 mm 4 m/s 749 mmHg 89%
06:00 +27°C° 0 mm 3 m/s 750 mmHg 86%
07:00 +28°C° 0 mm 3 m/s 750 mmHg 84%
08:00 +29°C° 0 mm 3 m/s 750 mmHg 81%
09:00 +30°C° 0 mm 3 m/s 751 mmHg 77%
10:00 +33°C° 0 mm 3 m/s 751 mmHg 72%
11:00 +34°C° 0 mm 2 m/s 751 mmHg 68%
12:00 +32°C° 0.5 mm 2 m/s 750 mmHg 75%
13:00 +32°C° 0.5 mm 2 m/s 749 mmHg 82%
14:00 +31°C° 0.5 mm 2 m/s 749 mmHg 89%
15:00 +30°C° 1 mm 3 m/s 748 mmHg 90%
16:00 +30°C° 1 mm 3 m/s 748 mmHg 91%
17:00 +29°C° 1 mm 3 m/s 748 mmHg 92%
18:00 +29°C° 0.2 mm 4 m/s 748 mmHg 93%
19:00 +28°C° 0.2 mm 4 m/s 748 mmHg 95%
20:00 +27°C° 0.2 mm 4 m/s 749 mmHg 96%
21:00 +27°C° 0 mm 4 m/s 749 mmHg 95%
22:00 +26°C° 0 mm 5 m/s 750 mmHg 94%
23:00 +26°C° 0 mm 5 m/s 750 mmHg 93%

13 August, Joi

Timp Temperatura Precipitaţii Vânt Presiune Umiditate
00:00 +26°C° 0 mm 5 m/s 750 mmHg 92%
01:00 +26°C° 0 mm 4 m/s 749 mmHg 92%
02:00 +25°C° 0 mm 4 m/s 749 mmHg 91%
03:00 +25°C° 0 mm 4 m/s 749 mmHg 91%
04:00 +25°C° 0 mm 4 m/s 749 mmHg 90%
05:00 +25°C° 0 mm 4 m/s 749 mmHg 90%
06:00 +27°C° 0 mm 3 m/s 749 mmHg 87%
07:00 +28°C° 0 mm 3 m/s 750 mmHg 84%
08:00 +29°C° 0 mm 3 m/s 750 mmHg 82%
09:00 +31°C° 0 mm 3 m/s 750 mmHg 76%
10:00 +33°C° 0 mm 3 m/s 750 mmHg 70%
11:00 +35°C° 0 mm 3 m/s 750 mmHg 65%
12:00 +34°C° 0.5 mm 3 m/s 750 mmHg 73%
13:00 +33°C° 0.5 mm 3 m/s 749 mmHg 81%
14:00 +32°C° 0.5 mm 4 m/s 749 mmHg 89%
15:00 +30°C° 0.8 mm 5 m/s 748 mmHg 90%
16:00 +30°C° 0.8 mm 5 m/s 748 mmHg 92%
17:00 +30°C° 0.8 mm 6 m/s 748 mmHg 93%
18:00 +29°C° 0.1 mm 6 m/s 748 mmHg 95%
19:00 +28°C° 0.1 mm 6 m/s 749 mmHg 96%
20:00 +27°C° 0.1 mm 5 m/s 749 mmHg 98%
21:00 +27°C° 0 mm 5 m/s 749 mmHg 97%
22:00 +26°C° 0 mm 5 m/s 750 mmHg 96%
23:00 +26°C° 0 mm 5 m/s 750 mmHg 96%
Arată mai mult